Spokane Fairchild, WA
on Tuesday, February 26, 2013

Tuesday
Previous Day Next Day
Daily Summary
 ActualAverage (KGEG)Record (KGEG)
Temperature
Mean Temperature °F 35°F  
Max Temperature 41°F 43°F 60°F (1932)
Min Temperature 24°F 27°F -23°F (1890)
Degree Days
Heating Degree Days 32 30  
Month to date heating degree days 836  
Since 1 July heating degree days 4769  
Cooling Degree Days 0 0  
Month to date cooling degree days 0  
Year to date cooling degree days 0  
Moisture
Dew Point 26°F   
Average Humidity 77    
Maximum Humidity 100    
Minimum Humidity 56    
Precipitation
Precipitation 0.00 in 0.05 in 0.45 in (1974)
Month to date precipitation 1.23  
Year to date precipitation 3.02  
Snow
Snow 0.00 in 0.20 in 2.90 in (1955)
Month to date snowfall 6.4  
Since 1 July snowfall 39.9  
Snow Depth in   
Wind
Wind Speed 10 mph   
Max Wind Speed 16 mph   
Max Gust Speed 23 mph   
Visibility 10 miles   
Events     

Key: T is trace of precipitation, MM is missing value
Source: NWS Daily Summary
Time(PST)TemperatureDew PointHumidity Pressure Visibility Wind DirectionWind SpeedGust SpeedPrecipitationEvents Conditions
12:23 AM 30.2°F 24.8°F 80% 30.08 in 10.0 miles SW 16.1 mph - N/A   Mostly Cloudy
12:34 AM 30.2°F 24.8°F 80% 30.08 in 10.0 miles SSW 12.7 mph 23.0 mph N/A   Mostly Cloudy
12:58 AM 28.9°F 24.6°F 84% 30.16 in 10.0 miles SW 12.7 mph - 0.00 in   Mostly Cloudy
1:58 AM 27.0°F 24.1°F 89% 30.19 in 10.0 miles SSW 11.5 mph - N/A   Partly Cloudy
2:27 AM 26.6°F 23.0°F 86% 30.12 in 10.0 miles SSW 8.1 mph - N/A   Mostly Cloudy
2:52 AM 26.6°F 24.8°F 93% 30.13 in 10.0 miles SSW 10.4 mph - N/A   Overcast
2:53 AM 26.6°F 24.8°F 93% 30.13 in 10.0 miles SSW 10.4 mph - N/A   Overcast
2:58 AM 26.6°F 23.0°F 86% 30.20 in 10.0 miles SSW 10.4 mph - 0.00 in   Overcast
2:59 AM 26.6°F 23.0°F 86% 30.13 in 10.0 miles SSW 9.2 mph - N/A   Overcast
3:58 AM 25.5°F 23.9°F 94% 30.22 in 10.0 miles South 8.1 mph - 0.00 in   Scattered Clouds
4:58 AM 25.0°F 23.7°F 95% 30.25 in 10.0 miles South 6.9 mph - N/A   Clear
5:58 AM 24.6°F 23.4°F 95% 30.27 in 10.0 miles SSW 6.9 mph - N/A   Mostly Cloudy
6:58 AM 25.0°F 23.7°F 95% 30.30 in 10.0 miles South 6.9 mph - N/A   Overcast
7:03 AM 24.8°F 24.8°F 100% 30.21 in 10.0 miles South 8.1 mph - N/A   Overcast
7:08 AM 24.8°F 24.8°F 100% 30.21 in 10.0 miles South 8.1 mph - N/A   Overcast
7:11 AM 24.8°F 24.8°F 100% 30.21 in 10.0 miles South 8.1 mph - N/A   Overcast
7:17 AM 24.8°F 24.8°F 100% 30.22 in 10.0 miles South 9.2 mph - N/A   Overcast
7:58 AM 26.1°F 25.2°F 96% 30.31 in 10.0 miles South 9.2 mph - 0.00 in   Overcast
8:29 AM - - N/A% - 10.0 miles SSW 6.9 mph - N/A   Overcast
8:45 AM 27.1°F 24.8°F 91% 30.41 in 10.0 miles South 5.8 mph - N/A   Overcast
8:58 AM 28.6°F 25.3°F 88% 30.41 in 10.0 miles South 9.2 mph - N/A   Mostly Cloudy
9:15 AM 28.4°F 24.8°F 86% 30.26 in 10.0 miles South 8.1 mph - N/A   Scattered Clouds
9:26 AM 30.2°F 26.6°F 86% 30.25 in 10.0 miles South 9.2 mph - N/A   Mostly Cloudy
9:36 AM 30.2°F 26.6°F 86% 30.25 in 10.0 miles South 9.2 mph - N/A   Mostly Cloudy
9:58 AM 31.6°F 26.8°F 82% 30.34 in 10.0 miles South 8.1 mph - N/A   Mostly Cloudy
9:59 AM 32.0°F 26.6°F 80% 30.26 in 10.0 miles South 8.1 mph - N/A   Scattered Clouds
10:18 AM 32.0°F 26.6°F 80% 30.26 in 10.0 miles South 10.4 mph - N/A   Mostly Cloudy
10:29 AM 32.0°F 26.6°F 80% 30.26 in 10.0 miles South 10.4 mph - N/A   Mostly Cloudy
10:52 AM 33.8°F 26.6°F 75% 30.26 in 10.0 miles South 5.8 mph - N/A   Scattered Clouds
10:58 AM 34.7°F 27.0°F 73% 30.33 in 10.0 miles SSW 8.1 mph - N/A   Scattered Clouds
11:21 AM 35.6°F 26.6°F 70% 30.26 in 10.0 miles South 9.2 mph - N/A   Partly Cloudy
11:31 AM 35.6°F 26.6°F 70% 30.26 in 10.0 miles South 10.4 mph - N/A   Scattered Clouds
11:52 AM 37.4°F 26.6°F 65% 30.26 in 10.0 miles SSW 11.5 mph 18.4 mph N/A   Scattered Clouds
11:55 AM 37.4°F 26.6°F 65% 30.26 in 10.0 miles SSW 10.4 mph 18.4 mph N/A   Partly Cloudy
11:58 AM 36.7°F 27.1°F 68% 30.33 in 10.0 miles SSW 9.2 mph - 0.00 in   Partly Cloudy
12:15 PM 37.4°F 26.6°F 65% 30.26 in 10.0 miles SSW 11.5 mph - N/A   Partly Cloudy
12:24 PM 37.4°F 26.6°F 65% 30.26 in 10.0 miles SSW 10.4 mph 17.3 mph N/A   Partly Cloudy
12:41 PM 37.4°F 26.6°F 65% 30.26 in 10.0 miles SW 10.4 mph - N/A   Partly Cloudy
12:51 PM 39.2°F 26.6°F 61% 30.25 in 10.0 miles SSW 9.2 mph - N/A   Scattered Clouds
12:52 PM 39.2°F 26.6°F 61% 30.25 in 10.0 miles SSW 8.1 mph - N/A   Scattered Clouds
12:58 PM 38.7°F 27.0°F 63% 30.32 in 10.0 miles SW 12.7 mph - 0.00 in   Mostly Cloudy
1:04 PM 37.4°F 26.6°F 65% 30.25 in 10.0 miles SW 11.5 mph - N/A   Mostly Cloudy
1:28 PM 39.2°F 26.6°F 61% 30.25 in 10.0 miles SSW 10.4 mph - N/A   Partly Cloudy
1:29 PM 39.2°F 26.6°F 61% 30.25 in 10.0 miles SSW 11.5 mph - N/A   Partly Cloudy
1:52 PM 39.2°F 26.6°F 61% 30.24 in 10.0 miles SSW 10.4 mph - N/A   Partly Cloudy
1:58 PM 40.1°F 26.6°F 59% 30.32 in 10.0 miles SW 12.7 mph - 0.00 in   Partly Cloudy
2:01 PM 39.2°F 26.6°F 61% 30.24 in 10.0 miles SSW 11.5 mph - N/A   Partly Cloudy
2:38 PM 39.2°F 24.8°F 56% 30.24 in 10.0 miles SSW 11.5 mph - N/A   Partly Cloudy
2:48 PM 39.2°F 26.6°F 61% 30.24 in 10.0 miles SSW 10.4 mph - N/A   Partly Cloudy
2:58 PM 39.7°F 26.1°F 58% 30.32 in 10.0 miles SW 12.7 mph - 0.00 in   Scattered Clouds
2:59 PM 41.0°F 26.6°F 57% 30.24 in 10.0 miles SW 10.4 mph - N/A   Light Drizzle
3:08 PM 39.2°F 24.8°F 56% 30.25 in 10.0 miles SW 10.4 mph - N/A   Scattered Clouds
3:58 PM 37.8°F 26.1°F 63% 30.32 in 10.0 miles WSW 5.8 mph - 0.00 in   Partly Cloudy
4:58 PM 35.6°F 25.3°F 66% 30.32 in 10.0 miles SSW 4.6 mph - N/A   Mostly Cloudy
5:58 PM 33.4°F 25.3°F 72% 30.32 in 10.0 miles SE 4.6 mph - N/A   Partly Cloudy
6:58 PM 32.4°F 25.2°F 75% 30.32 in 10.0 miles SE 3.5 mph - N/A   Clear
7:51 PM 32.0°F 24.8°F 75% 30.22 in 10.0 miles SE 4.6 mph - N/A   Clear
7:58 PM 32.2°F 25.5°F 76% 30.31 in 10.0 miles SE 4.6 mph - 0.00 in   Clear
8:25 PM 32.0°F 26.6°F 80% 30.21 in 10.0 miles SE 9.2 mph - N/A   Clear
8:58 PM 31.6°F 26.6°F 82% 30.21 in 10.0 miles SE 5.8 mph - 0.00 in   Clear
9:58 PM 29.8°F 26.4°F 87% 30.29 in 10.0 miles ESE 4.6 mph - N/A   Partly Cloudy
10:58 PM 29.1°F 26.1°F 88% 30.28 in 10.0 miles East 2.3 mph - N/A   Partly Cloudy
11:58 PM 30.7°F 27.3°F 87% 30.27 in 10.0 miles ESE 3.5 mph - N/A   Mostly Cloudy
Moon Phase
Feb. 26 Mar. 04 Mar. 11 Mar. 19 Mar. 27
Sunrise:06:36 AM (PST) Moon Rise:07:03 PM (PST)
Sunset:05:31 PM (PST) Moon Set:06:33 AM (PST)

Copyright © 2014 The Weather Underground, Inc.